STARLINK-4151, 53034

Orbit data source: Space-Track

STARLINK-4151, 53034 is a payload satellite owned by SpaceX/Seattle (US) in LEO that was launched on Thu, 07 Jul 2022 UTC via an FALCON 9 launch vehicle from the Air Force Eastern Test Range (AFETR). Payload-class satellites include a variety of spacecraft equipped with specific instruments for various scientific and technological missions. These include communications satellites like Starlink; space stations such as the ISS; scientific satellites like the Hubble; Earth observation satellites from companies like Planet Labs, Umbra, and HawkEye 360; GPS; miniature CubeSats for education and research; and military/defense satellites.

Loading next visibility...
Identifier
53034, 2022-076BA
Orbit
LEO
Country
Flag of USUS
Related business
Manufacturer
SpaceX/Seattle
Mission
Operational Commercial Communications
Bus & Motor
STARLINK, Unknown motor
Mass
297 kg wet, ~275 kg dry
Launch date (UTC)
2022-07-07 (4 years ago)
Launch vehicle
FALCON 9
Launch site
Air Force Eastern Test Range (AFETR)
Object type
Payload
Rocket body
Debris
Shape & HBR
Box + 1 Pan, 10.1 m
Radar Cross Section
13.562 m², Large (>1 m²)

Expand to show TLE details & history
Last TLE update: 2 days ago

TLE from 2 days ago
0 STARLINK-4151
1 53034U 22076BA  26171.17293955  .00001888  00000-0  13673-3 0  9998
2 53034  53.1612 333.9877 0001219  91.4835 268.6296 15.08831370218598
Epoch: 2026-06-20T04:09Z
TLE epoch observation values (Epoch: 2026-06-20T04:09:01.977Z)
Latitude
-0.00001°
Longitude
3.33809°
Altitude
540.682 km
Speed
7.593 km/s
True Right ascension
22h 15m 57s
True Declination
0° 00' 00"
Sunlit
Object was in partial shadow at epoch
Visualization orbit readout
Latitude
Unknown
Longitude
Unknown
Altitude
Unknown
Speed
Unknown
Apparent Right ascension
Unknown
Apparent Declination
Unknown
Sunlit
N/A
Visualization observer readout
Local Sidereal Time
22:00:15
Azimuth
Unknown
Elevation
Unknown
Doppler factor
Unknown
Orbital elements
Apogee altitude
540.867 km
Perigee altitude
539.18 km
Semi-major axis
6,918.161 km
Eccentricity
0.00012
Inclination
53.1612°
RAAN
333.9877°
Arg. of periapsis
91.4835°
True anomaly
268.61564°
Mean anomaly
268.6296°
Eccentric anomaly
268.62262°
Mean motion
3.77187 °/min
Orbital period
95.44 mins
BSTAR
0.00013673
Loading maneuver chart data...
Computing Atmospheric mass density...
Loading historical data...
Loading historical data...
Loading historical data...
Loading historical data...
Loading historical data...
Loading historical data...
Loading historical data...

Documentation

Showing up to 5 results
|